Time,B instrument,Bx,By,Bz,sigma B,Ion instrument,Status,Tp_par,Tp_perp,carrot,r_sun,clat,clong,earth_he_angle,n_p,vp_x,vp_y,vp_z,vth_p_par,vth_p_perp
1980-07-30 00:01:48,-1,nan,nan,nan,nan,1,3,nan,nan,1697,0.89677417,2.7528496,145.69286,106.44286,nan,355.613,0.688605,44.7727,nan,nan
1980-07-30 00:45:00,-1,nan,nan,nan,nan,1,3,nan,nan,1697,0.89693969,2.7498589,145.29091,106.43935,nan,345.583,-0.929306,26.7885,nan,nan
1980-07-30 00:59:07,-1,nan,nan,nan,nan,1,4,nan,nan,1697,0.89699233,2.7489071,145.16089,106.43823,nan,nan,nan,nan,nan,nan
1980-07-30 01:28:12,-1,nan,nan,nan,nan,1,3,nan,nan,1697,0.89710128,2.7469358,144.89294,106.43591,nan,364.689,-24.3525,22.1052,nan,nan
1980-07-30 03:09:18,-1,nan,nan,nan,nan,1,4,nan,nan,1697,0.89748037,2.7400723,143.95514,106.4278,nan,nan,nan,nan,nan,nan
1980-07-30 03:14:42,-1,nan,nan,nan,nan,1,3,nan,nan,1697,0.89749914,2.7397327,143.90395,106.42738,nan,344.365,-27.9608,22.913,nan,nan
1980-07-30 03:20:06,-1,nan,nan,nan,nan,1,4,nan,nan,1697,0.89752162,2.7393255,143.85269,106.42691,nan,nan,nan,nan,nan,nan
1980-07-30 03:25:30,1,6.8,-6.4,1.8,0.0,1,1,119281.0,88908.3,1697,0.89754033,2.738986,143.8054,106.4265,2.88005,341.54,-22.1997,21.6738,44.3755,38.3115
1980-07-30 03:29:06,-1,nan,nan,nan,nan,1,3,nan,nan,1697,0.89755535,2.7387142,143.76993,106.42618,nan,344.063,-20.2184,20.1768,nan,nan
1980-07-30 04:18:36,-1,nan,nan,nan,nan,1,3,nan,nan,1697,0.89773887,2.7353859,143.31284,106.42221,nan,352.075,-19.6623,30.7637,nan,nan
1980-07-30 04:24:00,1,6.85,-6.125,0.7,0.298957,1,1,220440.0,102309.0,1697,0.89776129,2.7349787,143.26157,106.42172,3.35877,352.696,-27.4565,24.5055,60.3258,41.0975
1980-07-30 04:29:24,-1,nan,nan,nan,nan,1,4,nan,nan,1697,0.89778,2.7346392,143.21039,106.42133,nan,nan,nan,nan,nan,nan
1980-07-30 04:34:48,1,6.5,-6.3,0.833333,0.319722,1,1,156120.0,110575.0,1697,0.89779872,2.7342997,143.1631,106.42091,3.57934,356.515,-25.3647,28.7663,50.7677,42.7255
1980-07-30 04:40:14,1,6.66667,-6.23333,0.566667,0.244949,1,1,141431.0,108594.0,1697,0.89782119,2.7338924,143.11185,106.42044,3.0934,359.138,-23.5668,25.8722,48.3204,42.341
1980-07-30 04:45:38,1,6.43333,-6.23333,-0.433333,0.2,1,1,203543.0,94969.4,1697,0.8978399,2.7335529,143.06065,106.42003,3.72455,358.865,-24.7675,33.7814,57.9677,39.5959
1980-07-30 04:51:02,1,6.3,-6.26667,-0.3,0.169967,1,1,178488.0,106278.0,1697,0.89786232,2.7331448,143.00938,106.41954,3.06348,356.948,-22.2098,40.3398,54.2828,41.887
1980-07-30 04:56:26,1,6.225,-6.475,-0.8,0.416833,1,1,201740.0,116484.0,1697,0.89788103,2.7328053,142.96211,106.41914,3.50329,356.291,-22.404,38.8839,57.7104,43.8521
1980-07-30 05:01:50,-1,nan,nan,nan,nan,1,4,nan,nan,1697,0.89789975,2.7324657,142.91092,106.41873,nan,nan,nan,nan,nan,nan
1980-07-30 05:07:14,1,7.0,-5.6,-0.6,8.88178e-16,1,1,198315.0,88608.5,1697,0.89792216,2.7320585,142.85965,106.41824,3.32752,355.968,-28.1384,42.4021,57.2184,38.2468
1980-07-30 05:12:38,-1,nan,nan,nan,nan,1,4,nan,nan,1697,0.89794087,2.731719,142.81238,106.41785,nan,nan,nan,nan,nan,nan
1980-07-30 05:18:02,1,7.36667,-5.76667,0.6,0.210819,1,1,177434.0,83425.4,1697,0.89796329,2.7313118,142.76111,106.41736,3.53555,359.595,-34.5325,29.1237,54.1223,37.1114
1980-07-30 05:23:26,1,7.3,-5.9,2.06667,0.329983,1,1,165973.0,99388.1,1697,0.897982,2.7309723,142.70992,106.41695,3.04948,353.828,-22.7427,17.2856,52.3452,40.5065
1980-07-30 05:28:50,1,7.46667,-6.13333,1.93333,0.270801,1,1,115670.0,146005.0,1697,0.89800066,2.7306328,142.65872,106.41653,3.76661,349.75,-18.0904,23.1246,43.6987,49.0955
1980-07-30 05:34:14,1,7.53333,-5.63333,1.26667,0.282843,1,1,164309.0,118044.0,1697,0.89802307,2.7302256,142.61136,106.41605,3.24491,347.567,-25.9663,33.2368,52.0821,44.1448
1980-07-30 05:39:38,1,7.6,-6.1,1.4,1.27555e-15,1,1,168030.0,115210.0,1697,0.89804178,2.7298861,142.56018,106.41565,3.28592,351.92,-24.7256,29.056,52.6686,43.6117
1980-07-30 05:45:02,1,7.175,-6.325,0.7,0.242384,1,1,117536.0,115189.0,1697,0.8980642,2.7294788,142.50891,106.41516,3.05266,350.592,-18.1941,29.6814,44.0498,43.6077
1980-07-30 05:50:26,1,6.93333,-6.53333,1.26667,0.270801,1,1,140579.0,116306.0,1697,0.89808291,2.7291393,142.46162,106.41475,3.1044,355.307,-17.1521,25.2123,48.1746,43.8186
1980-07-30 05:55:50,1,7.16667,-6.33333,0.6,0.194365,1,1,120196.0,118709.0,1697,0.89810157,2.7287998,142.41043,106.41434,2.75897,352.723,-23.1504,40.013,44.5454,44.269
1980-07-30 06:01:14,1,7.3,-6.66667,0.733333,0.253859,1,1,171192.0,101618.0,1697,0.89812398,2.7283916,142.35916,106.41385,3.52576,348.106,-19.8324,31.634,53.1618,40.9584
1980-07-30 06:06:38,1,7.4,-6.6,1.2,0.2,1,1,138728.0,108191.0,1697,0.89814264,2.7280531,142.31187,106.41344,3.0252,356.486,-17.8133,25.2154,47.8563,42.2624
1980-07-30 06:12:02,1,7.36667,-6.6,1.93333,0.194365,1,1,157325.0,120700.0,1697,0.89816505,2.7276459,142.2606,106.41295,3.44784,352.373,-15.0493,23.5075,50.9632,44.6387
1980-07-30 06:17:26,1,7.23333,-6.3,0.866667,0.194365,1,1,123137.0,116884.0,1697,0.8981837,2.7273064,142.20943,106.41255,3.2069,352.663,-19.0997,29.0493,45.0871,43.9275
1980-07-30 06:22:50,1,7.66667,-6.23333,0.6,0.210819,1,1,203954.0,126550.0,1697,0.89820236,2.7269669,142.15823,106.41214,3.48208,353.473,-23.8489,31.2684,58.0262,45.7077
1980-07-30 06:28:14,1,7.33333,-6.46667,1.26667,0.282843,1,1,126616.0,105576.0,1697,0.89822477,2.7265596,142.11087,106.41165,2.57235,362.376,-20.8611,32.8203,45.7196,41.7484
1980-07-30 06:33:38,1,7.53333,-5.96667,1.26667,0.282843,1,1,228598.0,133340.0,1697,0.89824343,2.7262201,142.05968,106.41124,3.75547,355.898,-23.3772,29.8296,61.432,46.9179
1980-07-30 06:39:02,1,7.7,-5.63333,0.733333,0.24037,1,1,122040.0,151070.0,1697,0.89826584,2.7258129,142.00841,106.41075,3.08322,348.618,-20.1733,26.7094,44.8858,49.9398
1980-07-30 06:44:26,1,7.23333,-6.3,0.866667,0.194365,1,1,160843.0,129944.0,1697,0.89828449,2.7254734,141.96112,106.41034,3.32795,348.312,-21.2616,31.3087,51.5299,46.3165
1980-07-30 06:49:50,1,7.36667,-6.5,0.6,0.377124,1,1,122489.0,132307.0,1697,0.89830315,2.7251339,141.90993,106.40993,2.9136,353.3,-23.8402,36.4858,44.9682,46.7357
1980-07-30 06:55:14,1,7.16667,-6.03333,0.6,0.210819,1,1,138756.0,142812.0,1697,0.8983255,2.7247267,141.85866,106.40944,3.08742,349.965,-18.5565,34.5888,47.8612,48.5557
1980-07-30 07:00:38,1,7.33333,-5.66667,0.0666667,0.46188,1,1,158412.0,114890.0,1697,0.89834422,2.7243881,141.80748,106.40904,2.95907,353.023,-20.957,32.5543,51.139,43.5511
1980-07-30 07:11:24,1,6.43333,-6.23333,-0.433333,0.2,1,1,112859.0,61811.8,1697,0.89838517,2.7236414,141.70892,106.40814,2.2867,368.688,-27.8653,40.7052,43.1645,31.9443
1980-07-30 07:16:48,1,5.93333,-6.33333,-0.966667,0.316228,1,1,645023.0,79659.2,1697,0.89840382,2.7233019,141.65773,106.40773,5.08517,382.3,-47.9259,37.7595,103.192,36.264
1980-07-30 07:22:12,1,6.46667,-6.33333,0.266667,0.391578,1,1,99558.3,79144.4,1697,0.89842618,2.7228947,141.61035,106.40723,2.15551,363.7,-23.1929,35.8681,40.5412,36.1466
1980-07-30 07:27:36,1,6.3,-6.73333,0.533333,0.176383,1,1,166156.0,120223.0,1697,0.89844477,2.7225552,141.55917,106.40683,3.26558,366.633,-15.9921,27.8069,52.374,44.5504
1980-07-30 07:33:02,1,6.23333,-6.66667,-0.7,0.210819,1,1,149517.0,113488.0,1697,0.89846718,2.7221479,141.50789,106.40633,3.24871,365.57,-19.4827,33.9055,49.6825,43.2845
1980-07-30 07:38:26,-1,nan,nan,nan,nan,1,3,nan,nan,1697,0.89848578,2.7218084,141.46062,106.40593,nan,363.469,-15.546,25.1279,nan,nan
1980-07-30 07:43:50,-1,nan,nan,nan,nan,1,3,nan,nan,1697,0.89850444,2.7214689,141.40942,106.40552,nan,360.705,-13.9199,36.5596,nan,nan
1980-07-30 08:00:02,1,5.7,-6.6,-0.433333,0.188562,1,1,150977.0,133752.0,1697,0.8985678,2.7203159,141.2596,106.40413,3.38737,369.65,-8.88375,28.9433,49.9245,46.9902
1980-07-30 08:05:26,1,6.16667,-6.66667,-0.3,0.194365,1,1,121041.0,112829.0,1697,0.89858639,2.7199764,141.2084,106.40372,2.98796,365.76,-16.4916,28.7552,44.7018,43.1586
1980-07-30 08:16:14,1,6.475,-6.4,0.15,0.457575,1,1,96177.6,126474.0,1697,0.89862734,2.7192297,141.10983,106.4028,2.85508,359.624,-17.1748,28.1737,39.8469,45.6939
1980-07-30 08:21:38,1,6.5,-6.6,0.6,8.88178e-16,1,1,130692.0,117315.0,1697,0.89864594,2.7188911,141.05864,106.40239,3.0749,362.725,-12.3824,27.1398,46.4496,44.0083
1980-07-30 08:27:02,1,6.43333,-6.66667,0.3,0.405518,1,1,80413.0,121584.0,1697,0.89866829,2.7184839,141.00737,106.4019,2.35837,364.614,-15.7126,33.9667,36.4352,44.8018
1980-07-30 08:32:26,1,7.23333,-6.3,0.866667,0.194365,1,1,127037.0,113565.0,1697,0.89868689,2.7181444,140.96008,106.40149,2.949,354.95,-14.548,25.8924,45.7956,43.2991
1980-07-30 08:37:50,1,6.96667,-6.23333,0.733333,0.316228,1,1,151992.0,98055.8,1697,0.89870548,2.7178059,140.90889,106.40108,3.12082,361.069,-14.0039,27.7431,50.092,40.2341
1980-07-30 08:43:14,1,7.06667,-6.2,0.733333,0.312694,1,1,119440.0,102084.0,1697,0.89872783,2.7173986,140.8576,106.40057,3.00853,360.069,-13.7039,28.4734,44.4051,41.0522
1980-07-30 08:48:38,1,7.33333,-6.1,0.733333,0.323179,1,1,44352.7,54515.8,1697,0.89874643,2.7170591,140.80641,106.40016,1.86782,365.015,-26.9798,24.8487,27.0594,29.9999
1980-07-30 08:54:02,1,7.13333,-6.33333,0.733333,0.258199,1,1,130092.0,100854.0,1697,0.89876878,2.7166519,140.75905,106.39967,3.01529,356.664,-12.1566,26.2416,46.3428,40.8041
1980-07-30 08:59:26,1,7.0,-6.36667,0.866667,0.24037,1,1,89103.0,96104.3,1697,0.89878738,2.7163134,140.70786,106.39926,2.72614,363.096,-16.5255,26.2649,38.3534,39.8317
1980-07-30 09:04:50,1,6.43333,-6.33333,0.533333,0.2,1,1,122269.0,95849.7,1697,0.89880598,2.7159739,140.65666,106.39885,2.97638,361.796,-13.3964,30.4145,44.9279,39.779
1980-07-30 09:10:14,1,6.83333,-6.6,0.733333,0.352767,1,1,80588.0,89487.1,1697,0.89882827,2.7155666,140.6093,106.39836,2.67222,365.734,-17.0153,22.5101,36.4748,38.436
1980-07-30 09:15:38,1,6.76667,-6.46667,0.6,0.210819,1,1,137148.0,79147.2,1697,0.89884686,2.7152281,140.55811,106.39795,2.73433,358.554,-14.3465,26.1314,47.5831,36.1473
1980-07-30 09:21:02,1,7.2,-6.86667,1.0,0.298142,1,1,40082.8,30558.7,1697,0.89886916,2.7148209,140.50682,106.39745,1.60372,366.36,-20.1282,17.1474,25.7239,22.4608
1980-07-30 09:26:26,1,6.7,-7.36667,1.53333,0.253859,1,1,124314.0,88833.1,1697,0.89888775,2.7144814,140.45563,106.39703,3.00159,362.018,-10.07,19.6004,45.3021,38.2953
1980-07-30 09:31:50,1,7.2,-7.13333,1.26667,0.194365,1,1,75191.2,53772.7,1697,0.89890629,2.7141428,140.40834,106.39662,2.56394,359.612,-24.2528,16.7301,35.2323,29.7947
1980-07-30 09:37:14,1,6.93333,-7.23333,1.66667,0.282843,1,1,106890.0,70296.0,1697,0.89892858,2.7137356,140.35707,106.39613,3.25199,361.259,-15.5215,18.2945,42.0075,34.0662
1980-07-30 09:42:38,1,6.0,-7.3,0.5,0.0,1,1,108413.0,83140.6,1697,0.89894718,2.713397,140.30588,106.39572,2.42697,360.992,-13.4612,31.9568,42.3057,37.048
1980-07-30 09:48:02,1,6.63333,-7.13333,0.733333,0.33665,1,1,120597.0,99344.2,1697,0.89896947,2.7129898,140.2585,106.39522,2.73952,351.601,-6.41039,29.2615,44.6197,40.4976
1980-07-30 09:53:26,1,6.3,-7.1,1.0,8.88178e-16,1,1,75864.6,66290.7,1697,0.89898807,2.7126503,140.20731,106.39481,2.19036,361.125,-14.3399,32.4291,35.3898,33.0814
1980-07-30 09:58:50,1,7.05,-7.025,0.8,0.338194,1,1,152899.0,119757.0,1697,0.89900666,2.7123117,140.15611,106.39439,3.18389,355.19,-7.86915,30.7547,50.2412,44.4639
1980-07-30 10:09:38,1,7.13333,-6.73333,1.0,0.210819,1,1,110422.0,90552.9,1697,0.89904749,2.711566,140.05756,106.39349,2.91798,356.451,-13.7906,19.586,42.6959,38.6642
1980-07-30 10:15:02,1,7.83333,-6.66667,1.86667,0.424264,1,1,74500.3,65702.9,1697,0.89906979,2.7111588,140.00627,106.39299,2.5642,363.259,-21.8698,26.4012,35.0701,32.9344
1980-07-30 10:20:26,1,7.83333,-6.36667,1.83333,0.2,1,1,107948.0,88976.8,1697,0.89908832,2.7108202,139.95508,106.39258,3.14331,357.893,-16.8011,26.3251,42.2148,38.3263
1980-07-30 10:25:50,1,8.43333,-5.7,3.9,0.298142,1,1,87501.3,52164.6,1697,0.89910692,2.7104807,139.90779,106.39217,2.67736,362.341,-26.7921,14.4879,38.0071,29.3458
1980-07-30 10:31:14,1,8.3,-6.16667,2.16667,0.253859,1,1,121359.0,68421.8,1697,0.89912915,2.7100735,139.85651,106.39166,2.63261,360.772,-14.864,29.9066,44.7603,33.609
1980-07-30 10:36:38,1,8.4,-6.1,3.1,8.88178e-16,1,1,98661.5,69004.0,1697,0.89914775,2.7097349,139.80531,106.39125,3.07268,358.118,-19.9496,19.5248,40.3582,33.7516
1980-07-30 10:42:02,1,8.675,-5.8,3.4,0.248747,1,1,93993.5,67643.1,1697,0.89916998,2.7093277,139.75793,106.39075,2.85585,357.041,-15.2996,20.1668,39.3919,33.4172
1980-07-30 10:47:26,1,9.26667,-4.83333,2.96667,0.270801,1,1,107309.0,55742.9,1697,0.89918858,2.7089891,139.70674,106.39034,2.85099,356.762,-22.9149,18.5667,42.0898,30.3356
1980-07-30 10:52:50,1,9.23333,-4.83333,2.96667,0.282843,1,1,91371.5,86254.3,1697,0.89920712,2.7086496,139.65555,106.38992,3.32099,352.829,-19.2823,21.2577,38.8386,37.7353
1980-07-30 10:58:14,1,9.0,-5.4,2.3,8.88178e-16,1,1,90724.4,60445.2,1697,0.89922941,2.7082434,139.60817,106.38942,3.08572,357.413,-22.5843,22.129,38.7008,31.5892
1980-07-30 11:03:38,1,8.16667,-5.76667,1.73333,0.270801,1,1,95233.5,103554.0,1697,0.89924794,2.7079039,139.55698,106.38901,2.70696,354.469,-15.2295,22.8291,39.6509,41.3468
1980-07-30 11:09:02,1,8.5,-5.2,1.9,2.22045e-16,1,1,112620.0,103017.0,1697,0.89927018,2.7074976,139.50571,106.38852,3.13249,353.054,-18.4889,26.8839,43.1186,41.2393
1980-07-30 11:14:26,1,7.96667,-6.03333,1.83333,0.216025,1,1,107612.0,90372.0,1697,0.89928871,2.7071581,139.4545,106.38809,2.99992,356.737,-11.1836,22.3912,42.149,38.6256
1980-07-30 11:19:50,1,8.3,-6.16667,2.03333,0.253859,1,1,95662.3,90236.0,1697,0.89930725,2.7068195,139.40721,106.38768,2.86488,357.288,-18.2624,18.474,39.74,38.5965
1980-07-30 11:25:14,1,8.375,-5.675,2.0,0.220794,1,1,103177.0,101158.0,1697,0.89932948,2.7064123,139.35593,106.38718,2.81737,353.931,-12.1323,24.8451,41.2713,40.8655
1980-07-30 11:30:38,1,8.16667,-5.76667,1.6,0.301846,1,1,98528.3,97644.0,1697,0.89934802,2.7060738,139.30473,106.38676,2.5227,357.687,-11.2813,26.7194,40.3309,40.1496
1980-07-30 11:36:02,1,8.36667,-5.53333,1.76667,0.454606,1,1,91102.3,100013.0,1697,0.89937025,2.7056675,139.25735,106.38626,2.53466,354.131,-16.0107,33.4996,38.7813,40.6337
1980-07-30 11:41:26,1,8.1,-5.66667,1.96667,0.494413,1,1,107219.0,101736.0,1697,0.89938879,2.705328,139.20616,106.38585,2.89755,357.703,-11.8323,27.1912,42.072,40.9823
1980-07-30 11:46:50,1,8.725,-5.4,2.7,0.637868,1,1,79024.5,100688.0,1697,0.89940733,2.7049894,139.15497,106.38544,2.777,350.921,-17.8004,14.2432,36.1192,40.7705
1980-07-30 11:52:14,1,9.36667,-4.53333,1.63333,0.305505,1,1,75570.5,66629.2,1697,0.89942956,2.7045822,139.10368,106.38493,2.2994,351.888,-28.2179,36.3256,35.3211,33.1658
1980-07-30 11:57:38,1,9.0,-4.96667,1.5,0.149071,1,1,125348.0,95430.1,1697,0.8994481,2.7042437,139.0564,106.38452,2.87357,348.758,-20.4391,35.3076,45.4901,39.6918
1980-07-30 12:03:02,1,8.13333,-6.1,1.73333,0.352767,1,1,116593.0,76386.8,1697,0.89947033,2.7038364,139.00511,106.38402,2.49555,356.619,-7.51002,24.5708,43.8727,35.5113
1980-07-30 12:09:00,1,8.16667,-5.7,1.03333,0.253859,1,1,122846.0,78574.3,1697,0.8994925,2.7034302,138.94992,106.38351,2.73679,354.529,-9.15034,41.0909,45.0338,36.0162
1980-07-30 12:13:48,1,7.43333,-6.73333,1.56667,0.716473,1,1,106548.0,91646.3,1697,0.89950734,2.7031593,138.90662,106.38318,2.7394,353.463,-18.2499,31.6102,41.9403,38.8969
1980-07-30 12:19:12,1,7.3,-7.06667,1.93333,0.24037,1,1,169808.0,95773.0,1697,0.89952952,2.7027521,138.85535,106.38269,2.94695,357.711,0.713591,34.5128,52.9464,39.763
1980-07-30 12:24:36,1,7.36667,-6.9,1.4,0.249444,1,1,89608.6,73212.9,1697,0.89954805,2.7024136,138.80414,106.38226,2.01655,356.32,0.750264,35.6498,38.4621,34.7658
1980-07-30 12:30:00,1,7.23333,-7.06667,2.2,0.194365,1,1,190144.0,128547.0,1697,0.89957023,2.7020073,138.75677,106.38177,3.48743,349.908,6.05399,27.692,56.0273,46.0669
1980-07-30 12:35:26,1,7.76667,-6.76667,0.9,0.323179,1,1,101214.0,69398.9,1697,0.89958876,2.7016678,138.70557,106.38135,2.35343,356.734,0.809174,42.0852,40.8769,33.8481
1980-07-30 12:40:50,1,6.8,-7.3,1.53333,0.188562,1,1,47475.1,54802.4,1697,0.8996073,2.7013292,138.65437,106.38094,1.70384,360.301,-10.2055,33.3783,27.9957,30.0786
1980-07-30 12:46:14,1,6.8,-7.3,1.8,0.0,1,1,74991.0,49808.1,1697,0.89962947,2.700922,138.60309,106.38043,1.71306,365.738,1.23364,36.7264,35.1854,28.6753
1980-07-30 12:51:38,1,6.4,-7.46667,2.33333,0.397213,1,1,194000.0,93748.1,1697,0.89964801,2.7005835,138.5558,106.38002,2.99023,360.617,7.06051,32.3107,56.5924,39.3404
1980-07-30 12:57:02,1,7.06667,-7.3,2.2,0.262467,1,1,38152.1,51530.6,1697,0.89967018,2.7001772,138.50452,106.37952,1.73319,371.031,6.001,32.6535,25.0967,29.1669
1980-07-30 13:02:26,1,7.36667,-7.03333,2.2,0.380058,1,1,192273.0,111973.0,1697,0.89968872,2.6998377,138.45332,106.3791,3.41922,357.336,2.8729,35.5162,56.34,42.9946
1980-07-30 13:07:50,1,6.46667,-7.86667,2.33333,0.282843,1,1,66162.4,54690.1,1697,0.8997072,2.6994991,138.40602,106.37868,1.86625,367.894,5.3249,28.0422,33.0494,30.0478
1980-07-30 13:13:14,1,7.2,-7.125,3.0,0.356195,1,1,184977.0,94291.0,1697,0.89972937,2.6990929,138.35474,106.37817,3.20811,356.341,2.83279,28.5098,55.2608,39.4542
1980-07-30 13:18:38,1,8.56667,-5.76667,2.16667,0.565685,1,1,73972.1,75546.7,1697,0.89974785,2.6987543,138.30354,106.37776,2.08765,351.398,-11.7621,38.0122,34.9455,35.3155
1980-07-30 13:24:02,1,7.16667,-7.23333,2.73333,0.408248,1,1,106155.0,93060.0,1697,0.89977002,2.6983471,138.25616,106.37726,2.80426,355.93,1.16223,26.1807,41.8627,39.1958
1980-07-30 13:29:26,1,8.13333,-6.23333,2.7,0.210819,1,1,52663.2,77437.3,1697,0.8997885,2.6980085,138.20497,106.37685,2.21262,350.457,-10.1664,34.8635,29.4857,35.7547
1980-07-30 13:34:50,1,7.55,-6.975,3.05,0.258602,1,1,154549.0,88723.4,1697,0.89980704,2.69767,138.15376,106.37642,2.79933,357.495,3.38602,34.8657,50.5115,38.2716
1980-07-30 13:40:14,1,7.53333,-7.1,2.76667,0.413656,1,1,79473.8,58013.3,1697,0.89982921,2.6972637,138.10248,106.37592,2.20116,363.456,2.03786,29.0205,36.2218,30.9472
1980-07-30 13:45:38,1,6.83333,-7.63333,3.66667,0.365148,1,1,127242.0,87111.3,1697,0.89984769,2.6969242,138.05519,106.3755,2.86734,352.858,0.189411,27.8475,45.8325,37.9223
1980-07-30 13:51:02,1,6.53333,-7.8,2.86667,0.380058,1,1,90671.1,65665.6,1697,0.89986986,2.6965179,138.00391,106.375,2.16213,364.576,2.36704,33.7918,38.6894,32.9251
1980-07-30 13:56:26,1,6.4,-7.76667,1.93333,0.323179,1,1,126841.0,77835.0,1697,0.89988834,2.6961794,137.9527,106.37457,2.67521,355.253,-2.94798,39.8063,45.7602,35.8464
1980-07-30 14:01:50,1,5.66667,-8.2,2.8,0.249444,1,1,87648.0,78678.6,1697,0.89990681,2.6958399,137.90541,106.37416,2.28659,364.537,3.60348,27.5054,38.039,36.0401
1980-07-30 14:07:14,1,5.46667,-8.43333,2.76667,0.282843,1,1,227394.0,185482.0,1697,0.89992899,2.6954336,137.85413,106.37366,3.69686,346.142,21.9083,37.2513,61.2699,55.3361
1980-07-30 14:18:02,1,4.2,-8.8,4.5,0.0,1,1,264726.0,160537.0,1697,0.89996958,2.6946888,137.75165,106.37274,3.67768,348.514,26.9968,30.3252,66.1084,51.4808
1980-07-30 14:23:26,1,5.86667,-7.96667,4.96667,0.216025,1,1,253464.0,167447.0,1697,0.89998806,2.6943502,137.70435,106.37231,3.87593,321.487,19.659,31.5509,64.6868,52.5771
1980-07-30 14:26:00,1,4.76667,-8.2,5.56667,0.459468,1,1,209801.0,103287.0,1697,0.89999914,2.6941471,137.68066,106.37207,2.45944,342.28,-3.13229,29.7756,58.8521,41.2935
1980-07-30 14:28:50,1,7.3,-7.13333,1.13333,0.253859,1,1,227220.0,146829.0,1697,0.90000653,2.6940117,137.65315,106.3719,3.00544,345.395,8.07722,36.6422,61.2465,49.2339
1980-07-30 14:34:14,1,8.2,-6.23333,2.3,0.169967,1,1,119092.0,109544.0,1697,0.90002865,2.6936045,137.60187,106.3714,2.42173,346.277,-9.10243,38.7704,44.3403,42.5257
1980-07-30 14:39:38,1,8.65,-6.1,2.4,0.342783,1,1,150707.0,140057.0,1697,0.90004712,2.6932659,137.55457,106.37097,3.25358,343.375,-6.44498,35.6501,49.8798,48.0851
1980-07-30 14:45:02,1,8.76667,-5.3,3.1,0.249444,1,1,138134.0,149698.0,1697,0.9000693,2.6928596,137.50328,106.37047,3.20878,334.238,-16.8666,39.9201,47.7539,49.7126
1980-07-30 14:50:26,1,8.7,-5.6,3.5,0.571548,1,1,236555.0,194752.0,1697,0.90008771,2.6925211,137.45209,106.37006,4.2813,332.983,-3.65149,30.356,62.4919,56.702
1980-07-30 14:55:50,-1,nan,nan,nan,nan,1,4,nan,nan,1697,0.90010619,2.6921825,137.40479,106.36963,nan,nan,nan,nan,nan,nan
1980-07-30 15:09:12,-1,nan,nan,nan,nan,1,3,nan,nan,1697,0.90015781,2.6912336,137.27861,106.36845,nan,347.438,4.34095,41.8121,nan,nan
1980-07-30 15:52:24,-1,nan,nan,nan,nan,1,3,nan,nan,1697,0.90031636,2.6883221,136.87654,106.36482,nan,335.638,1.89238,35.3322,nan,nan
1980-07-30 16:35:36,-1,nan,nan,nan,nan,1,3,nan,nan,1697,0.90047467,2.6854105,136.47838,106.36119,nan,336.151,51.7814,28.075,nan,nan
1980-07-30 17:18:49,-1,nan,nan,nan,nan,1,3,nan,nan,1697,0.90063292,2.6824999,136.07629,106.35754,nan,342.485,44.0158,-9.25673,nan,nan
1980-07-30 18:02:01,-1,nan,nan,nan,nan,1,3,nan,nan,1697,0.90079468,2.6795216,135.67802,106.35381,nan,377.812,-4.53359,-28.2368,nan,nan
1980-07-30 18:45:13,-1,nan,nan,nan,nan,1,3,nan,nan,1697,0.90095258,2.6766109,135.27592,106.35014,nan,351.369,44.5402,-20.8616,nan,nan
1980-07-30 20:46:31,-1,nan,nan,nan,nan,1,4,nan,nan,1697,0.90139598,2.6684256,134.1523,106.3398,nan,nan,nan,nan,nan,nan
1980-07-30 20:49:13,-1,nan,nan,nan,nan,1,4,nan,nan,1697,0.901407,2.6682224,134.12469,106.33954,nan,nan,nan,nan,nan,nan
1980-07-30 20:51:03,-1,nan,nan,nan,nan,1,3,nan,nan,1698,0.90144223,2.52634,134.03629,106.26675,nan,347.6,66.7587,-15.5421,nan,nan
1980-07-30 20:51:55,-1,nan,nan,nan,nan,1,3,nan,nan,1697,0.90141433,2.668087,134.10109,106.33937,nan,317.427,42.9951,-30.0886,nan,nan
1980-07-30 20:53:45,-1,nan,nan,nan,nan,1,3,nan,nan,1697,0.90142167,2.6679516,134.0853,106.3392,nan,340.715,77.682,10.2518,nan,nan
1980-07-30 20:56:27,-1,nan,nan,nan,nan,1,3,nan,nan,1697,0.90143263,2.6677485,134.05769,106.33894,nan,331.261,86.5781,-4.80187,nan,nan
1980-07-30 20:59:09,-1,nan,nan,nan,nan,1,3,nan,nan,1697,0.9014436,2.6675453,134.034,106.33868,nan,325.544,53.2341,-15.3399,nan,nan
1980-07-30 21:47:25,-1,nan,nan,nan,nan,1,3,nan,nan,1697,0.90161914,2.6643,133.58455,106.33455,nan,319.306,71.8859,-22.627,nan,nan
1980-07-30 21:50:07,1,5.4,-8.5,8.55,0.229129,1,1,21669.7,59196.0,1697,0.9016301,2.6640978,133.56085,106.33429,1.06833,328.025,78.042,-33.928,18.914,31.2611
1980-07-30 21:52:49,1,6.3,-8.1,9.0,0.0,1,1,37056.4,52603.6,1697,0.90163743,2.6639624,133.53725,106.33412,1.14526,309.191,61.3431,-29.6529,24.7337,29.469
1980-07-30 21:55:31,-1,nan,nan,nan,nan,1,4,nan,nan,1697,0.9016484,2.6637592,133.50964,106.33386,nan,nan,nan,nan,nan,nan
1980-07-30 21:58:15,1,7.0,-7.7,8.6,0.0,1,1,23833.8,113513.0,1697,0.90165937,2.6635561,133.48595,106.3336,1.43373,273.286,38.0357,-27.4937,19.836,43.2894
1980-07-30 22:00:57,1,6.6,-8.15,8.2,0.269258,1,1,28294.1,110965.0,1697,0.9016667,2.6634207,133.45844,106.33344,1.56232,293.106,61.3661,-17.2944,21.6125,42.8008
1980-07-30 22:03:39,-1,nan,nan,nan,nan,1,4,nan,nan,1697,0.90167761,2.6632185,133.43474,106.33318,nan,nan,nan,nan,nan,nan
1980-07-30 22:06:21,1,4.5,-9.8,7.7,0.0,1,1,56942.6,69331.2,1697,0.90168858,2.6630154,133.41104,106.33292,1.29368,338.066,74.929,-14.1939,30.6603,33.8316
1980-07-30 22:09:03,1,5.8,-9.36667,7.8,0.298142,1,1,76212.1,135228.0,1697,0.90169954,2.6628132,133.38344,106.33266,1.81121,311.111,74.1162,-3.54605,35.4707,47.2488
1980-07-30 22:11:45,1,4.43333,-9.66667,7.7,0.210819,1,1,32906.8,52170.7,1697,0.90170681,2.6626778,133.35982,106.33247,1.22242,333.48,81.4215,-21.6513,23.3078,29.3475
1980-07-30 22:14:27,1,4.36667,-9.86667,7.7,0.210819,1,1,176815.0,114391.0,1697,0.90171778,2.6624746,133.33612,106.33221,2.00677,347.721,72.7224,-13.5965,54.0278,43.4564
1980-07-30 22:17:09,1,4.8,-9.5,7.96667,0.249444,1,1,137394.0,97189.6,1697,0.90172875,2.6622725,133.30853,106.33197,1.75755,340.723,61.9746,-21.3869,47.6257,40.056
1980-07-30 22:19:51,1,6.26667,-8.46667,7.0,0.278887,1,1,55751.5,99886.1,1697,0.90173602,2.662137,133.28491,106.33179,1.65974,303.803,64.4232,-6.63551,30.3379,40.6079
1980-07-30 22:22:33,1,8.8,-7.16667,6.3,0.298142,1,1,18647.3,56835.3,1697,0.90174699,2.6619339,133.26122,106.33153,1.37732,278.292,58.1397,7.18535,17.5455,30.6314